Tracking 29932 objects as of 4-Dec-2024
HD Live streaming from Space Station
objects crossing your sky now

STARLINK-31009

Track STARLINK-31009 now!
10-day predictions
STARLINK-31009 is classified as:


NORAD ID: 58530
Int'l Code: 2023-191Y
Perigee: 565.4 km
Apogee: 567.0 km
Inclination: 43.0 °
Period: 95.8 minutes
Semi major axis: 6937 km
RCS: Unknown
Launch date: December 7, 2023
Source: United States (US)
Launch site: AIR FORCE EASTERN TEST RANGE (AFETR)
Your satellite tracking list
Your tracking list is empty




NASA's NSSDC Master Catalog

Two Line Element Set (TLE):
1 58530U 23191Y   24338.72680437  .00001221  00000-0  10542-3 0  9995
2 58530  43.0055  90.4586 0001130 276.0472  84.0242 15.02533724 56121
Source of the keplerian elements: AFSPC